SCP
2 2 2 2 1 1 1 1 1 1 1 1 1 1 1 1 1 1 1 1 1 1 0 0 0 0 0 0 0 0 0 0 0 0 0 0 0 0 0 0 0 0 0
2 2 2 2 2 1 1 1 1 1 1 1 1 1 1 1 1 1 1 1 1 1 0 0 0 0 0 0 0 0 0 0 0 0 0 0 0 0 0 0 0 0 0
2 2 2 2 2 2 1 1 1 1 1 1 1 1 1 1 1 1 1 1 1 0 0 0 0 0 0 0 0 0 0 0 0 0 0 0 0 0 0 0 0 0 0
3 3 2 2 2 2 2 2 1 1 1 1 1 1 1 1 1 1 1 1 1 0 0 0 0 0 0 0 0 0 0 0 0 0 0 0 0 0 0 0 0 0 0
3 3 3 2 2 2 2 2 2 1 1 1 1 1 1 1 0 0 1 1 1 1 1 0 0 0 0 0 0 0 0 0 0 0 0 0 0 0 0 0 0 0 0
4 3 3 3 2 2 2 2 2 2 1 1 1 1 1 1 0 0 0 1 1 1 1 1 0 0 0 0 0 0 0 0 0 0 0 0 0 0 0 0 0 0 0
4 4 3 3 3 2 2 2 2 2 2 2 1 1 1 1 0 0 0 1 1 1 1 1 0 0 0 0 0 0 0 0 0 0 0 0 0 0 0 0 0 0 0
4 4 4 3 3 3 2 2 2 2 2 2 2 1 1 1 0 0 0 0 1 1 1 0 0 0 0 0 0 0 0 0 0 0 0 0 0 0 0 0 0 0 0
4 4 4 4 3 3 3 3 2 2 2 2 2 1 1 1 0 0 0 0 1 1 0 0 0 0 0 0 0 0 0 0 0 0 0 0 0 0 0 0 0 0 0
4 4 4 4 3 3 3 3 3 2 2 2 2 2 1 1 0 0 0 0 0 1 0 0 0 0 0 0 0 0 0 0 0 0 0 0 0 0 0 0 0 0 0
4 4 4 4 3 3 3 3 3 2 2 2 2 2 1 1 0 0 0 0 0 0 0 0 0 0 0 0 0 0 0 0 0 0 0 0 0 0 0 0 0 0 0
4 4 4 3 3 3 3 3 3 3 2 2 2 2 1 1 0 0 0 0 0 0 0 0 0 0 0 0 0 0 0 0 0 0 0 0 0 0 0 0 0 0 0
4 4 4 3 3 3 3 3 3 2 2 2 2 1 1 1 0 0 0 0 0 0 0 0 0 0 0 0 0 0 0 0 0 0 0 0 0 0 0 0 0 0 0
4 4 3 3 3 2 2 2 2 2 1 1 1 1 1 1 0 0 0 0 0 0 0 0 0 0 0 0 0 0 0 0 0 0 0 0 0 0 0 0 0 0 0
3 3 3 2 2 2 2 1 1 1 1 1 1 1 1 0 0 0 0 0 0 0 0 0 0 0 0 0 0 0 0 0 0 0 0 0 0 0 0 0 0 0 0
3 3 2 2 2 2 1 1 0 0 0 0 0 0 0 0 0 0 0 0 0 0 0 0 0 0 0 0 0 0 0 0 0 0 0 0 0 0 0 0 0 0 0
2 2 2 2 2 2 1 1 0 0 0 0 0 0 0 0 0 0 0 0 0 0 0 0 0 0 0 0 0 0 0 0 0 0 0 0 0 0 0 0 0 0 0
2 2 2 2 1 1 1 1 1 0 0 0 0 0 0 0 0 0 0 0 0 0 0 0 0 0 0 0 0 0 0 0 0 0 0 0 0 0 0 0 0 0 0
2 2 1 1 1 1 1 1 1 0 0 0 0 0 0 0 0 0 0 0 0 0 0 0 0 0 0 0 0 0 0 0 0 0 0 0 0 0 0 0 0 0 0
1 1 1 1 1 1 1 1 1 0 0 0 0 0 0 0 0 0 0 0 0 0 0 0 0 0 0 0 0 0 0 0 0 0 0 0 0 0 0 0 0 0 0
1 1 1 1 1 1 1 1 0 0 0 0 0 0 0 0 0 0 0 0 0 0 0 0 0 0 0 0 0 0 0 0 0 0 0 0 0 0 0 0 0 0 0
1 1 1 1 1 1 0 0 0 0 0 0 0 0 0 0 0 0 0 0 0 0 0 0 0 0 0 0 0 0 0 0 0 0 0 0 0 0 0 0 0 0 0
1 1 1 1 0 0 0 0 0 0 0 0 0 0 0 0 0 0 0 0 0 0 0 0 0 0 0 0 0 0 0 0 0 0 0 0 0 0 0 0 0 0 0
1 0 0 0 0 0 0 0 0 0 0 0 0 0 0 0 0 0 0 0 0 0 0 0 0 0 0 0 0 0 0 0 0 0 0 0 0 0 0 0 0 0 0
0 0 0 0 0 0 0 0 0 0 0 0 0 0 0 0 0 0 0 0 0 0 0 0 0 0 0 0 0 0 0 0 0 0 0 0 0 0 0 0 0 0 0
0 0 0 0 0 0 0 0 0 0 0 0 0 0 0 0 0 0 0 0 0 0 0 0 0 0 0 0 0 0 0 0 0 0 0 0 0 0 0 0 0 0 0
Wind_Speed
7 6 5 6 5 5 3 3 2 2 2 2 2 3 3 3 3 3 4 3 3 3 3 4 4 4 3 3 2 2 2 2 3 3 1 1 1 1 2 2 2 2 4
7 6 6 5 5 4 4 3 3 3 3 3 3 3 3 3 2 2 3 3 2 3 3 3 3 3 3 3 2 3 3 3 3 3 2 1 2 2 2 2 2 2 2
9 7 6 6 5 4 3 3 2 2 2 2 2 2 2 2 2 2 2 2 2 3 3 3 3 3 3 3 3 3 2 3 2 2 2 1 1 1 1 2 1 1 2
9 8 7 6 5 4 3 3 3 2 2 2 1 1 1 1 2 2 2 2 2 2 2 2 2 2 3 3 3 3 2 2 2 2 2 2 2 2 2 2 1 1 1
8 8 7 6 5 4 4 3 3 2 2 1 1 1 1 1 2 3 3 2 2 2 2 2 1 1 2 1 2 1 2 2 2 2 2 2 1 2 2 2 2 1 2
7 7 7 6 5 5 4 4 3 2 1 1 1 0 1 1 3 4 4 3 2 2 2 2 1 1 1 1 1 2 2 2 2 2 2 2 2 2 1 2 2 2 2
7 6 7 6 6 5 5 4 3 2 2 2 1 1 2 2 3 4 5 4 3 2 1 2 2 1 1 1 1 1 1 1 3 3 3 3 2 1 2 2 2 2 2
7 6 6 6 5 5 4 3 3 2 2 2 2 1 2 2 2 3 5 4 2 1 1 2 1 2 2 3 2 1 1 1 1 2 2 2 1 1 2 2 2 2 2
6 5 5 5 5 5 4 3 3 3 2 2 2 2 2 2 2 3 4 3 1 0 0 2 2 2 3 4 2 2 1 1 2 2 1 0 1 2 2 1 1 1 2
5 4 4 4 4 4 3 3 2 2 2 2 2 2 2 2 2 2 4 3 2 1 1 2 4 2 2 3 2 2 2 2 1 1 1 0 1 2 2 2 2 2 2
4 4 4 4 4 4 3 2 2 2 2 1 1 2 2 3 3 1 2 2 3 3 1 1 2 2 1 2 2 2 2 3 2 1 1 1 1 0 1 1 1 2 2
5 4 4 3 3 3 3 2 2 1 1 2 2 1 2 2 2 1 1 2 4 3 2 2 1 0 1 2 2 2 3 3 2 1 1 1 1 1 1 1 1 1 1
4 4 4 3 2 3 3 3 2 1 1 1 1 1 1 2 2 1 1 2 3 2 2 3 1 1 1 2 1 2 3 2 2 1 1 1 1 1 1 1 1 1 1
4 4 4 3 3 2 1 1 1 1 1 0 0 0 1 2 2 1 0 1 1 1 1 1 2 2 2 2 1 2 2 1 2 2 1 1 0 1 1 1 1 1 1
3 2 3 3 4 3 3 3 2 3 2 1 1 1 1 1 2 2 1 1 2 2 2 1 1 1 1 1 1 1 1 1 1 1 1 1 0 1 1 1 1 1 1
2 2 1 2 3 3 5 4 7 5 6 6 5 3 3 3 2 2 2 2 2 3 2 1 1 1 1 1 1 1 1 1 1 1 1 1 1 0 0 0 0 1 1
1 1 0 1 2 2 3 4 3 3 4 5 5 5 4 2 2 2 3 3 2 2 1 1 1 1 2 2 2 1 1 1 1 1 1 1 2 1 1 0 0 1 1
1 2 1 1 1 1 2 2 3 3 3 2 2 2 2 1 1 1 2 2 1 0 0 1 1 1 2 2 2 2 2 2 2 2 2 1 1 1 1 1 1 1 1
0 1 0 1 1 1 1 1 1 2 2 3 3 2 0 1 0 1 1 1 2 1 0 1 1 2 2 2 2 2 2 2 2 2 2 2 2 1 1 2 2 1 1
1 1 0 1 0 1 1 1 2 2 2 2 2 2 1 1 1 1 1 1 1 1 1 1 1 2 2 2 2 2 2 2 2 2 2 2 2 2 2 2 2 1 2
1 2 2 1 1 1 1 1 2 2 2 2 2 3 2 1 1 1 1 0 1 2 2 2 1 2 2 2 2 2 3 3 3 3 3 3 3 3 2 2 2 2 2
0 1 1 1 1 1 1 1 2 2 2 3 3 2 1 1 1 1 1 1 1 2 2 2 2 2 2 3 3 3 3 4 4 4 4 3 3 3 3 3 3 2 3
1 1 2 2 1 2 1 1 2 2 2 2 2 3 2 0 1 1 1 1 1 1 2 2 2 3 3 3 3 4 4 4 4 4 5 5 4 4 4 3 4 4 4
0 1 2 2 1 1 1 2 2 2 3 3 2 2 2 1 1 2 2 2 2 2 2 2 2 4 5 4 3 4 4 4 5 4 6 6 6 5 4 4 5 5 5
2 3 3 3 2 2 3 3 3 3 3 3 3 3 2 2 2 2 2 2 2 2 3 3 3 4 6 7 7 6 5 5 5 6 6 6 7 6 6 6 5 5 5
4 4 3 3 3 3 3 3 3 3 3 3 3 2 2 2 2 2 2 2 2 2 2 3 5 6 7 6 7 6 5 6 6 7 6 6 7 6 6 6 7 6 6
Wind_Direction
173 174 162 168 180 185 191 203 203 222 235 245 253 259 259 254 248 242 255 259 255 257 263 262 262 259 260 271 266 245 234 228 245 260 257 219 221 218 176 193 189 184 189
168 166 166 168 173 184 183 185 194 207 223 229 238 253 264 269 271 265 272 273 267 269 266 262 267 262 247 256 265 255 243 233 228 245 256 252 242 222 201 212 212 202 184
167 167 167 174 177 180 178 179 192 207 227 240 239 243 273 294 290 283 281 276 274 274 270 263 264 264 259 258 261 264 262 261 236 225 240 234 236 217 207 230 224 198 210
166 169 170 175 174 178 175 177 186 198 223 236 257 271 279 303 332 327 313 288 279 278 287 289 287 270 264 263 257 261 266 268 251 233 234 228 217 213 195 203 228 225 228
162 167 168 172 174 175 171 174 176 187 208 205 231 292 316 8 2 339 310 296 293 290 297 298 302 338 351 321 298 300 289 278 273 257 248 251 232 200 208 214 221 235 251
162 167 164 169 169 170 170 169 175 175 168 158 172 128 41 19 16 8 347 319 308 306 313 311 265 85 29 359 325 299 271 262 273 269 259 248 248 225 211 211 218 230 244
166 167 167 169 169 171 173 170 174 169 169 162 159 140 104 55 25 6 350 315 309 324 324 311 307 1 60 354 293 284 323 287 253 260 261 251 247 230 207 231 233 244 250
171 172 167 167 164 162 165 168 167 170 177 162 171 168 136 86 34 358 334 296 294 335 352 345 353 30 9 350 313 305 336 9 289 264 261 248 244 215 216 224 233 245 247
166 166 165 163 161 161 167 172 171 178 177 173 165 165 141 110 56 8 344 298 272 243 65 32 24 56 9 349 327 330 338 2 16 29 45 259 216 207 199 187 210 227 257
155 152 144 143 147 156 168 175 171 176 177 187 165 153 136 118 94 38 350 308 309 275 156 117 75 56 12 353 320 311 294 301 307 339 49 80 149 161 191 210 213 235 260
130 130 137 144 155 156 153 159 166 178 178 184 150 134 118 113 120 70 6 337 334 324 317 122 98 70 37 342 319 312 297 292 275 246 220 159 136 163 196 220 240 252 261
128 130 138 144 156 142 142 152 154 159 178 184 177 170 138 123 106 115 336 322 328 324 334 23 70 28 298 304 311 321 308 297 265 246 223 205 217 230 234 226 216 277 295
120 126 127 125 113 125 152 154 159 168 205 205 191 193 134 118 113 110 226 281 313 323 1 24 24 247 276 245 250 299 304 290 289 272 264 250 228 196 162 185 193 210 260
126 130 135 137 131 107 87 87 87 49 347 334 60 25 99 98 78 64 13 235 255 243 273 244 221 238 272 309 279 245 249 289 306 300 303 284 145 150 178 185 194 207 226
114 134 156 150 138 123 92 52 62 65 40 357 15 27 31 81 44 26 17 18 2 4 334 287 237 211 238 253 252 260 275 264 287 305 313 315 215 189 213 202 202 214 226
134 149 172 153 142 141 126 99 53 69 66 58 49 50 71 88 114 71 51 37 17 12 355 306 327 341 333 330 339 1 359 350 341 334 331 332 320 282 244 239 232 244 243
148 135 262 134 151 157 148 148 136 91 73 62 54 61 80 91 58 28 10 353 350 32 354 327 3 358 350 352 1 5 11 7 348 336 343 345 336 331 329 294 256 267 275
180 146 178 168 181 181 164 166 165 157 148 126 93 77 93 111 65 8 4 352 320 206 283 344 349 359 14 11 11 6 4 8 356 336 337 342 334 328 325 315 303 272 265
208 134 186 176 181 147 143 151 127 122 121 118 109 93 55 143 110 336 350 308 326 23 33 8 355 359 17 21 15 6 354 359 360 343 341 344 338 331 320 311 304 274 263
124 102 203 249 205 129 137 129 116 115 111 117 124 117 137 173 195 163 192 283 312 1 354 2 13 11 15 12 4 357 349 1 4 354 348 340 330 323 309 298 299 289 267
169 153 186 213 126 91 114 116 118 118 112 114 108 109 132 213 148 107 110 12 4 5 9 6 18 20 24 14 9 5 8 15 11 355 348 341 334 322 310 302 295 291 293
208 173 179 122 106 98 89 100 103 111 114 110 110 122 155 298 34 76 81 62 38 22 22 11 14 40 31 17 21 19 13 14 6 348 336 328 319 310 305 300 296 290 283
235 168 131 113 111 113 149 116 107 108 107 109 117 122 133 91 55 56 60 55 47 37 32 26 16 35 38 33 37 39 28 12 352 341 335 325 316 309 305 303 299 296 289
108 105 108 114 117 125 118 100 99 101 100 94 94 105 117 98 63 58 51 41 41 37 37 39 42 45 46 42 44 41 34 14 353 342 334 319 310 307 309 306 301 299 293
62 66 74 84 84 76 76 79 75 76 76 77 72 67 68 72 68 67 59 43 32 34 41 49 43 43 46 51 45 39 29 14 1 345 325 311 307 306 303 301 298 294 291
72 74 74 72 71 70 70 70 67 68 76 76 70 63 59 55 54 60 50 30 22 34 40 58 62 63 53 54 52 44 26 2 347 336 319 306 308 313 316 308 306 303 298